Showing default

ALOUETTE 2, 1804

Orbit data source: Space-Track

ALOUETTE 2, 1804 is a payload satellite owned by DRTE (CA) in LEO that was launched on Mon, 29 Nov 1965 UTC via a THOR SLV-2 AGENA B launch vehicle from the Air Force Western Test Range (AFWTR). Payload-class satellites include a variety of spacecraft equipped with specific instruments for various scientific and technological missions. These include communications satellites like Starlink; space stations such as the ISS; scientific satellites like the Hubble; Earth observation satellites from companies like Planet Labs, Umbra, and HawkEye 360; GPS; miniature CubeSats for education and research; and military/defense satellites.

Loading next visibility...
Identifier
1804, 1965-098A
Orbit
LEO
Country
Flag of CACA
Related business
Manufacturer
DEHAVT/RCAV
Mission
Spacecraft
Bus & Motor
ALOUETTE, Unknown motor
Mass
145 kg wet, 145 kg dry
Launch date (UTC)
1965-11-29 (60 years ago)
Launch vehicle
THOR SLV-2 AGENA B
Launch site
Air Force Western Test Range (AFWTR)
Object type
Payload
Rocket body
Debris
Shape & HBR
Unknown
Radar Cross Section
Medium (>0.1 m² and <1 m²)

Expand to show TLE details & history
Last TLE update: 10 hours ago

TLE from 10 hours ago
0 ALOUETTE 2
1 01804U 65098A   25293.27659735  .00000753  00000-0  24615-3 0  9992
2 01804  79.7956 120.7418 1331311 358.9040   0.9174 12.28027437649829
Epoch: 2025-10-20T06:38Z
TLE epoch observation values (Epoch: 2025-10-20T06:38:18.011Z)
Latitude
-0.00001°
Longitude
-7.81448°
Altitude
503.919 km
Speed
8.103 km/s
True Right ascension
08h 02m 58s
True Declination
0° 00' 00"
Sunlit
Object was in daylight at epoch
Visualization orbit readout
Latitude
Unknown
Longitude
Unknown
Altitude
Unknown
Speed
Unknown
Apparent Right ascension
Unknown
Apparent Declination
Unknown
Sunlit
N/A
Visualization observer readout
Local Sidereal Time
11:56:49
Azimuth
Unknown
Elevation
Unknown
Doppler factor
Unknown
Orbital elements
Apogee altitude
2,611.364 km
Perigee altitude
499.019 km
Semi-major axis
7,933.329 km
Eccentricity
0.13313
Inclination
79.7956°
RAAN
120.7418°
Arg. of periapsis
358.904°
True anomaly
1.20993°
Mean anomaly
0.9174°
Eccentric anomaly
1.05828°
Mean motion
3.07157 °/min
Orbital period
117.2 mins
BSTAR
0.00024615
Loading maneuver chart data...
Computing Atmospheric mass density...
Loading historical data...
Loading historical data...
Loading historical data...
Loading historical data...
Loading historical data...
Loading historical data...
Loading historical data...

Documentation

Showing up to 5 results
|